GSAT0215 (PRN E21)

Last updated on Jan. 19, 2021, 6:23 a.m. UTC

1 43055U 17079A   21017.81573189 -.00000017  00000-0  00000+0 0  9992
2 43055  56.1038 275.9118 0002605 320.7373  39.3140  1.70473743 19290
UTC
Height (km)
Latitude
Longitude
Inclination
Orbital Period
UTC large
Height (km)
Speed (km/s)
/
Latitude / Longitude
Inclination (degrees)
Orbital Period (minutes)
Azimuth
Elevation
Range (km)
Doppler Factor
iOS Compass Heading
iOS Angle

Next 30 passes for location: Hong Kong

Rise time Rise Azimuth (degrees) Set time Set Azimuth (degrees) Duration Max altitude (degrees)

No matching passes for this satellites